Sanford, NC

9:47 PM EST on February 26, 2017 (GMT -0500)
Raleigh Executive Jetport

Weather History for KTTA - January, 2012

Change the Weather History Date:

Friday, January 27, 2012

  Actual Average (KHRJ) Record (KHRJ)
Temperature  
Mean Temperature 59 °F -  
Max Temperature 68 °F 50 °F 73 °F (1974)
Min Temperature 50 °F 29 °F 13 °F (1982)
Degree Days  
Heating Degree Days 6    
Growing Degree Days 9 (Base 50)    
Moisture  
Dew Point 51 °F    
Average Humidity 69    
Maximum Humidity 94    
Minimum Humidity 34    
Precipitation  
Precipitation 0.00 in - - ()
Sea Level Pressure  
Sea Level Pressure 29.74 in    
Wind  
Wind Speed 12 mph (WSW)    
Max Wind Speed 17 mph    
Max Gust Speed 28 mph    
Visibility 10 miles    
Events Rain    
Averages and records for this station are not official NWS values.
T = Trace of Precipitation, MM = Missing Value Source: NWS Daily Summary

Daily Weather History Graph

Daily Weather History Graph

Search for Another Location

Airport or City:

Trip Planner

Search our weather history database for the weather conditions in past years. The results will help you decide how hot, cold, wet, or windy it might be!

Date:

Astronomy

Jan. 27, 2012 Rise Set
Actual Time 7:20 AM EST 5:38 PM EST
Civil Twilight 6:52 AM EST 6:05 PM EST
Nautical Twilight 6:22 AM EST 6:36 PM EST
Astronomical Twilight 5:52 AM EST 7:06 PM EST
Moon 9:25 AM EST 10:14 PM EST
Length of Visible Light 11h 12m
Length of Day
10h 18m
Waxing Crescent, 19% of the Moon is Illuminated
Jan 27
Waxing Crescent
Jan 30
First Quarter
Feb 7
Full
Feb 14
Last Quarter
Feb 21
New

Hourly Weather History & Observations

Time (EST) Temp. Windchill Dew Point Humidity Pressure Visibility Wind Dir Wind Speed Gust Speed Precip Events Conditions
12:15 AM 64.4 °F - 60.8 °F 88% 29.78 in 10.0 mi South 13.8 mph 24.2 mph N/A   Scattered Clouds
12:35 AM 62.6 °F - 59.0 °F 88% 29.77 in 10.0 mi South 17.3 mph 23.0 mph N/A   Scattered Clouds
12:55 AM 62.6 °F - 59.0 °F 88% 29.75 in 10.0 mi South 16.1 mph 25.3 mph N/A   Scattered Clouds
1:15 AM 64.4 °F - 60.8 °F 88% 29.74 in 10.0 mi South 11.5 mph 25.3 mph N/A   Mostly Cloudy
1:35 AM 64.4 °F - 60.8 °F 88% 29.73 in 10.0 mi South 17.3 mph 25.3 mph N/A   Overcast
1:55 AM 64.4 °F - 60.8 °F 88% 29.72 in 10.0 mi South 13.8 mph 27.6 mph N/A   Overcast
2:15 AM 64.4 °F - 60.8 °F 88% 29.71 in 10.0 mi South 13.8 mph 21.9 mph N/A   Overcast
2:35 AM 64.4 °F - 60.8 °F 88% 29.69 in 10.0 mi South 17.3 mph 24.2 mph N/A   Overcast
2:55 AM 64.4 °F - 60.8 °F 88% 29.68 in 10.0 mi South 11.5 mph - N/A   Overcast
3:15 AM 64.4 °F - 60.8 °F 88% 29.65 in 10.0 mi SSE 15.0 mph 23.0 mph N/A   Overcast
3:35 AM 66.2 °F - 60.8 °F 83% 29.64 in 10.0 mi South 17.3 mph 26.5 mph N/A   Overcast
3:55 AM 66.2 °F - 60.8 °F 83% 29.64 in 10.0 mi South 12.7 mph 21.9 mph N/A   Overcast
4:15 AM 66.2 °F - 60.8 °F 83% 29.65 in 10.0 mi SSW 13.8 mph - N/A Rain Light Rain
4:35 AM 66.2 °F - 60.8 °F 83% 29.65 in 10.0 mi SSW 15.0 mph 21.9 mph N/A   Overcast
4:55 AM 66.2 °F - 60.8 °F 83% 29.64 in 10.0 mi SSW 11.5 mph - N/A   Mostly Cloudy
5:15 AM 64.4 °F - 60.8 °F 88% 29.62 in 10.0 mi South 9.2 mph - N/A   Mostly Cloudy
5:35 AM 64.4 °F - 59.0 °F 83% 29.62 in 10.0 mi South 10.4 mph - N/A   Overcast
5:55 AM 64.4 °F - 60.8 °F 88% 29.62 in 10.0 mi South 11.5 mph - N/A Rain Light Rain
6:15 AM 64.4 °F - 60.8 °F 88% 29.62 in 7.0 mi South 15.0 mph 20.7 mph N/A Rain Heavy Rain
6:35 AM 62.6 °F - 60.8 °F 94% 29.62 in 10.0 mi SSW 12.7 mph 20.7 mph N/A Rain Light Rain
6:55 AM 62.6 °F - 60.8 °F 94% 29.64 in 3.0 mi SW 12.7 mph 17.3 mph N/A Rain Heavy Rain
7:15 AM 62.6 °F - 60.8 °F 94% 29.64 in 7.0 mi SSW 12.7 mph 17.3 mph N/A Rain Rain
7:35 AM 60.8 °F - 59.0 °F 94% 29.64 in 10.0 mi SSW 9.2 mph - N/A Rain Light Rain
7:55 AM 60.8 °F - 59.0 °F 94% 29.64 in 10.0 mi SSW 8.1 mph - N/A   Scattered Clouds
8:15 AM 60.8 °F - 59.0 °F 94% 29.64 in 10.0 mi SW 8.1 mph - N/A   Clear
8:35 AM 60.8 °F - 59.0 °F 94% 29.65 in 10.0 mi SW 9.2 mph - N/A   Scattered Clouds
8:55 AM 60.8 °F - 59.0 °F 94% 29.64 in 10.0 mi SW 10.4 mph - N/A   Mostly Cloudy
9:15 AM 60.8 °F - 59.0 °F 94% 29.64 in 10.0 mi SW 6.9 mph - N/A   Mostly Cloudy
9:35 AM 60.8 °F - 59.0 °F 94% 29.64 in 10.0 mi SSW 11.5 mph 16.1 mph N/A   Scattered Clouds
9:55 AM 62.6 °F - 59.0 °F 88% 29.65 in 10.0 mi SW 11.5 mph 18.4 mph N/A   Mostly Cloudy
10:15 AM 62.6 °F - 59.0 °F 88% 29.66 in 10.0 mi SW 10.4 mph - N/A   Overcast
11:15 AM 64.4 °F - 57.2 °F 77% 29.67 in 10.0 mi WSW 13.8 mph - N/A   Scattered Clouds
11:35 AM 66.2 °F - 55.4 °F 68% 29.68 in 10.0 mi West 17.3 mph 23.0 mph N/A   Unknown
11:55 AM 64.4 °F - 51.8 °F 64% 29.69 in 10.0 mi West 12.7 mph 23.0 mph N/A   Mostly Cloudy
12:15 PM 60.8 °F - 50.0 °F 68% 29.69 in 10.0 mi West 10.4 mph 24.2 mph N/A Rain Light Rain
12:35 PM 60.8 °F - 51.8 °F 72% 29.69 in 10.0 mi West 9.2 mph - N/A   Mostly Cloudy
1:35 PM 68.0 °F - 46.4 °F 46% 29.69 in 10.0 mi WNW 15.0 mph 19.6 mph N/A   Scattered Clouds
1:55 PM 68.0 °F - 44.6 °F 43% 29.70 in 10.0 mi West 13.8 mph 25.3 mph N/A   Scattered Clouds
2:15 PM 68.0 °F - 44.6 °F 43% 29.70 in 10.0 mi West 10.4 mph 23.0 mph N/A   Scattered Clouds
2:35 PM 68.0 °F - 41.0 °F 37% 29.71 in 10.0 mi WSW 15.0 mph 25.3 mph N/A   Scattered Clouds
2:55 PM 68.0 °F - 42.8 °F 40% 29.72 in 10.0 mi West 17.3 mph 21.9 mph N/A   Clear
3:35 PM 66.2 °F - 42.8 °F 43% 29.75 in 10.0 mi West 6.9 mph 24.2 mph N/A   Scattered Clouds
3:55 PM 66.2 °F - 41.0 °F 40% 29.75 in 10.0 mi WNW 11.5 mph 20.7 mph N/A   Clear
4:15 PM 66.2 °F - 39.2 °F 37% 29.77 in 10.0 mi WNW 15.0 mph 20.7 mph N/A   Clear
4:35 PM 64.4 °F - 35.6 °F 34% 29.78 in 10.0 mi WNW 11.5 mph 23.0 mph N/A   Clear
5:15 PM 62.6 °F - 35.6 °F 37% 29.82 in 10.0 mi WNW 10.4 mph 16.1 mph N/A   Clear
5:35 PM 62.6 °F - 35.6 °F 37% 29.84 in 10.0 mi WNW 9.2 mph 18.4 mph N/A   Clear
5:55 PM 60.8 °F - 35.6 °F 39% 29.86 in 10.0 mi WNW 8.1 mph - N/A   Clear
6:15 PM 60.8 °F - 35.6 °F 39% 29.88 in 10.0 mi WNW 4.6 mph - N/A   Clear
6:35 PM 59.0 °F - 35.6 °F 42% 29.89 in 10.0 mi WNW 5.8 mph - N/A   Clear
6:55 PM 57.2 °F - 35.6 °F 44% 29.91 in 10.0 mi WNW 5.8 mph - N/A   Clear
7:35 PM 55.4 °F - 35.6 °F 47% 29.95 in 10.0 mi WNW 5.8 mph - N/A   Clear
7:55 PM 55.4 °F - 35.6 °F 47% 29.97 in 10.0 mi WNW 6.9 mph - N/A   Clear
8:15 PM 55.4 °F - 35.6 °F 47% 29.97 in 10.0 mi NW 9.2 mph - N/A   Clear
8:35 PM 53.6 °F - 33.8 °F 47% 29.98 in 10.0 mi NW 6.9 mph - N/A   Clear
8:55 PM 53.6 °F - 33.8 °F 47% 29.99 in 10.0 mi NW 6.9 mph - N/A   Clear
9:15 PM 51.8 °F - 33.8 °F 50% 30.00 in 10.0 mi NW 6.9 mph - N/A   Clear
9:35 PM 51.8 °F - 33.8 °F 50% 30.00 in 10.0 mi NW 4.6 mph - N/A   Clear
9:55 PM 50.0 °F - 33.8 °F 54% 30.01 in 10.0 mi NW 4.6 mph - N/A   Clear
10:15 PM 50.0 °F - 33.8 °F 54% 30.01 in 10.0 mi NW 4.6 mph - N/A   Clear
10:35 PM 50.0 °F - 33.8 °F 54% 30.02 in 10.0 mi NW 4.6 mph - N/A   Clear
10:55 PM 48.2 °F - 33.8 °F 58% 30.02 in 10.0 mi NW 5.8 mph - N/A   Clear
11:15 PM 46.4 °F 43.5 °F 33.8 °F 62% 30.02 in 10.0 mi NNW 5.8 mph - N/A   Clear
11:55 PM 44.6 °F 41.4 °F 33.8 °F 66% 30.03 in 10.0 mi North 5.8 mph - N/A   Clear